User: anonymous   Login
Location: Irma
(52.9170°N, 111.2330°W)
Time: 03:24:29
(UTC-06:00)
Language:

Meteor 1-24 Rocket - Orbit

View from above orbital plane
View from above orbital plane
View from above satellite
View from above satellite

Ground track
Ground track

The orbit data is extracted from the following two-line orbital elements,

1 08800U 76032B   15240.22074842  .00000035  00000-0  12912-4 0  9992
2 08800 081.2527 138.3758 0094246 251.1892 107.9038 14.10040931 25313
Epoch (UTC): 28 August 2015 05:17:52
Eccentricity: 0.0094246
inclination: 81.2527°
perigee height: 791 km
apogee height: 927 km
right ascension of ascending node: 138.3758°
argument of perigee: 251.1892°
revolutions per day: 14.10040931
mean anomaly at epoch: 107.9038°
orbit number at epoch: 2531

The dashed part of the orbit path shows where the satellite is in the earth's shadow,  

DLR